{"data":{"norad_id":58806,"intl_designator":"2024-012V","name":"STARLINK-31138","alt_names":[],"object_type":"PAYLOAD","status":"ACTIVE","operator":null,"country":"US","launch_date":"2024-01-15","launch_site_code":"AFETR","launch_vehicle":null,"mission":null,"orbit_class":"UNKNOWN","rcs_meters":null,"size_class":null,"mass_kg":null,"dimensions":null,"purposes":["comms"],"wikipedia_slug":null,"has_3d_model":false,"image_url":null,"decayed_at":null,"tle_current":{"epoch":"2026-05-24T23:47:13.780608Z","epoch_age_seconds":76609,"freshness":"FRESH","line1":"1 58806U 24012V   26144.99113172  .00003590  00000+0  13985-3 0  9991","line2":"2 58806  43.0040  94.4719 0001390 279.3330  80.7364 15.27597705132905","mean_motion":15.27597705,"eccentricity":0.000139,"inclination_deg":43.004,"raan_deg":94.4719,"arg_perigee_deg":279.333,"mean_anomaly_deg":80.7364,"bstar":0.00013985,"rev_number":13290,"period_min":94.265656153234,"perigee_km":482.04238391404,"apogee_km":483.94977891067,"semimajor_km":6861.1330814124,"source":"CELESTRAK","updated_at":"2026-05-25T13:38:18.751793Z"}}}